This is the latest recevied weather packets stored in our database for station/object SR6WVX. If no packets are shown the sender has not sent any weather packets the latest 10 day(s).
| Time | Temp. | Humidity | Pressure | Rain* | Wind** | Luminosity | Snow |
|---|---|---|---|---|---|---|---|
| 1777803281 | 30° C | 21% | 1010.5 hPa | 0 mm | - | - | - |
| 1777802980 | 30° C | 21% | 1010.3 hPa | 0 mm | - | - | - |
| 1777802680 | 30° C | 21% | 1010.5 hPa | 0 mm | - | - | - |
| 1777802380 | 30° C | 22% | 1010.4 hPa | 0 mm | - | - | - |
| 1777802080 | 30° C | 22% | 1010.6 hPa | 0 mm | - | - | - |
| 1777801779 | 30.56° C | 22% | 1010.5 hPa | 0 mm | - | - | - |
| 1777801479 | 30.56° C | 21% | 1010.4 hPa | 0 mm | - | - | - |
| 1777801179 | 30.56° C | 21% | 1010.5 hPa | 0 mm | - | - | - |
| 1777800879 | 30° C | 22% | 1010.6 hPa | 0 mm | - | - | - |
| 1777800578 | 30° C | 22% | 1010.6 hPa | 0 mm | - | - | - |
| 1777800278 | 30° C | 22% | 1010.7 hPa | 0 mm | - | - | - |
| 1777799978 | 30° C | 22% | 1010.8 hPa | 0 mm | - | - | - |
| 1777799677 | 30° C | 22% | 1010.8 hPa | 0 mm | - | - | - |
| 1777799377 | 30° C | 22% | 1010.9 hPa | 0 mm | - | - | - |
| 1777799077 | 30.56° C | 22% | 1011 hPa | 0 mm | - | - | - |
| 1777798777 | 30° C | 24% | 1011 hPa | 0 mm | - | - | - |
| 1777798476 | 30° C | 23% | 1011 hPa | 0 mm | - | - | - |
| 1777798176 | 29.44° C | 25% | 1011 hPa | 0 mm | - | - | - |
| 1777797876 | 28.89° C | 23% | 1011 hPa | 0 mm | - | - | - |
| 1777797576 | 28.89° C | 23% | 1011.3 hPa | 0 mm | - | - | - |
| 1777797275 | 29.44° C | 25% | 1011.2 hPa | 0 mm | - | - | - |
| 1777796975 | 29.44° C | 23% | 1011.3 hPa | 0 mm | - | - | - |
| 1777796675 | 29.44° C | 23% | 1011.2 hPa | 0 mm | - | - | - |
| 1777796375 | 30° C | 26% | 1011.3 hPa | 0 mm | - | - | - |
| 1777796074 | 29.44° C | 26% | 1011 hPa | 0 mm | - | - | - |
* Rain latest hour (hover to see other rain measurements)
** Current wind speed in m/s (hover to see current wind gust speed)